IUS R/B(2), 26883

Orbit data source: Space-Track

IUS R/B(2), 26883 is space debris in GEO originally from a launch on Mon, 06 Aug 2001 UTC launched from the Air Force Eastern Test Range (AFETR). Debris objects in space refer to the collection of defunct objects orbiting the Earth. Examples of debris include non-operational satellites, rocket bodies, and fragments generated from explosions, collisions, or faulty payload assembly.

Loading next visibility...
Identifier
26883, 2001-033D
Orbit
GEO
Country
Flag of USUS
Related business
Manufacturer
PW CSD
Mission
Orbus 6E) (Titan IVB IUS)"
Bus & Motor
ORBUS 6, ORBUS 6
Mass
1,079 kg wet, 1,079 kg dry
Launch date (UTC)
2001-08-06 (24 years ago)
Launch vehicle
Unknown
Launch site
Air Force Eastern Test Range (AFETR)
Object type
Payload
Rocket body
Debris
Shape & HBR
Cyl, Unknown HBR
Radar Cross Section
8.086 m²

Expand to show TLE details & history
Last TLE update: 2 days ago

TLE from 2 days ago
0 IUS R/B(2)
1 26883U 01033D   25241.43775759  .00000015  00000-0  00000-0 0  9991
2 26883  12.6375  18.7240 0005640  15.3116 344.7522  0.99887643 22877
Epoch: 2025-08-29T10:30Z
TLE epoch observation values (Epoch: 2025-08-29T10:30:22.255Z)
Latitude
-0.00001°
Longitude
-116.72447°
Altitude
35,871.184 km
Speed
3.072 km/s
True Right ascension
01h 15m 01s
True Declination
0° 00' 00"
Sunlit
Object was in daylight at epoch
Visualization orbit readout
Latitude
Unknown
Longitude
Unknown
Altitude
Unknown
Speed
Unknown
Apparent Right ascension
Unknown
Apparent Declination
Unknown
Sunlit
N/A
Visualization observer readout
Local Sidereal Time
04:21:07
Azimuth
Unknown
Elevation
Unknown
Doppler factor
Unknown
Orbital elements
Apogee altitude
35,919.464 km
Perigee altitude
35,871.779 km
Semi-major axis
42,273.759 km
Eccentricity
0.00056
Inclination
12.6375°
RAAN
18.724°
Arg. of periapsis
15.3116°
True anomaly
344.73519°
Mean anomaly
344.7522°
Eccentric anomaly
344.7437°
Mean motion
0.24971 °/min
Orbital period
1,441.67 mins
BSTAR
0
Loading maneuver chart data...
Computing Atmospheric mass density...
Loading historical data...
Loading historical data...
Loading historical data...
Loading historical data...
Loading historical data...
Loading historical data...
Loading historical data...
Other satellites on launch #33 in the year 2001 (2001-08-06 UTC)

Documentation

Showing up to 5 results
|